Flag for U.S.A. Weather past 2 weeks in Pittsburgh, Pennsylvania, U.S.A.

Now
20 °F

Clear.


Feels Like: 15 °F
Forecast: 10 / 27 °F
Wind: 3 mph from West

Location: Allegheny County Airport

Current Time: Jan 28, 2015 at 6:25:09 PM

Latest Report: Jan 28, 2015 at 5:53 PM


Visibility: 10 mi

Pressure: 30.37 "Hg

Humidity: 50%

Dew point: 4 °F

Location of PittsburghLocation

Historic Weather in Pittsburgh — Graph

°F

Pittsburgh temperature yesterday

Maximum temperature yesterday: 22 °F (at 2:53 PM)
Minimum temperature yesterday: 17 °F (at 10:53 PM)
Average temperature yesterday: 19 °F

Past Weeks' High & Low Weather Summary

 TemperatureHumidityPressure
High50 °F (Jan 17, 2:53 PM)92% (Jan 21, 9:53 AM)30.56 "Hg (Jan 21, 9:53 AM)
Low11 °F (Jan 28, 5:01 AM)33% (Jan 17, 2:53 PM)29.62 "Hg (Jan 24, 3:53 PM)
Average29 °F70%30.04 "Hg
* Reported Jan 13 4:53 PM — Jan 28 4:53 PM, Pittsburgh, Weather by CustomWeather, © 2014

Note: Actual official high and low records may vary slightly from our data, if they occured in-between our weather recording intervals... More about our weather records

Advertising

Pittsburgh weather history for previous 24 hours

 ConditionsComfort  
Time TempWeatherWind HumidityBarometerVisibility
4:53 PM
Jan 28
21 °FSunny.6 mph50%30.38 "Hg10 mi
3:53 PM22 °FSunny.5 mph48%30.37 "Hg10 mi
2:53 PM22 °FSunny.7 mph50%30.36 "Hg10 mi
1:53 PM20 °FSunny.8 mph52%30.37 "Hg10 mi
12:53 PM18 °FSunny.7 mph62%30.38 "Hg10 mi
11:53 AM17 °FPassing clouds.5 mph64%30.41 "Hg10 mi
10:53 AM16 °FSunny.7 mph67%30.41 "Hg10 mi
10:00 AM14 °FPartly sunny.10 mph77%30.31 "Hg6 mi
8:53 AM12 °FPartly sunny.8 mph80%30.37 "Hg7 mi
7:53 AM13 °FIce fog.6 mph77%30.35 "Hg5 mi
6:53 AM12 °FLight snow. Overcast.9 mph77%30.33 "Hg3 mi
5:53 AM13 °FOvercast.9 mph81%30.29 "Hg4 mi
5:01 AM11 °FPassing clouds.9 mph81%30.20 "Hg5 mi
3:53 AM12 °FClear.8 mph80%30.25 "Hg10 mi
2:53 AM13 °FPassing clouds.7 mph77%30.22 "Hg8 mi
1:53 AM15 °FOvercast.7 mph77%30.21 "Hg5 mi
12:53 AM17 °FOvercast.3 mph74%30.19 "Hg6 mi
11:53 PM
Jan 27
17 °FOvercast.5 mph74%30.19 "Hg5 mi
10:53 PM17 °FOvercast.10 mph70%30.16 "Hg10 mi
9:53 PM18 °FOvercast.12 mph68%30.14 "Hg7 mi
8:53 PM18 °FOvercast.8 mph74%30.13 "Hg10 mi
7:53 PM18 °FOvercast.14 mph74%30.11 "Hg10 mi
6:53 PM19 °FLight snow. Mostly cloudy.9 mph74%30.10 "Hg3 mi
Weather by CustomWeather, © 2014

See weather overviewHow to use our weather pages